Cortez, CO

4:50 PM MDT on May 24, 2017 (GMT -0600)
Cortez Municipal

Weather History for KCEZ - November, 2012

Change the Weather History Date:

Friday, November 9, 2012

  Actual Average Record
Temperature  
Mean Temperature 51 °F 39 °F  
Max Temperature 59 °F 55 °F 66 °F (2005)
Min Temperature 42 °F 24 °F 17 °F (2011)
Degree Days  
Heating Degree Days 14 26  
Month to date heating degree days 166 216  
Since 1 July heating degree days 722 898  
Cooling Degree Days 0 0  
Month to date cooling degree days 0 0  
Year to date cooling degree days 746 426  
Moisture  
Dew Point 39 °F    
Average Humidity 69    
Maximum Humidity 96    
Minimum Humidity 41    
Precipitation  
Precipitation 0.21 in 0.05 in 0.40 in (2004)
Month to date precipitation 0.21 0.41  
Year to date precipitation 6.33 11.83  
Sea Level Pressure  
Sea Level Pressure 29.71 in    
Wind  
Wind Speed 15 mph (South)    
Max Wind Speed 32 mph    
Max Gust Speed 39 mph    
Visibility 9 miles    
Events Rain , Thunderstorm    
T = Trace of Precipitation, MM = Missing Value Source: NWS Daily Summary

Daily Weather History Graph

Daily Weather History Graph

Search for Another Location

Airport or City:

Trip Planner

Search our weather history database for the weather conditions in past years. The results will help you decide how hot, cold, wet, or windy it might be!

Date:

Astronomy

Nov. 09, 2012 Rise Set
Actual Time 6:47 AM MST 5:08 PM MST
Civil Twilight 6:20 AM MST 5:35 PM MST
Nautical Twilight 5:49 AM MST 6:07 PM MST
Astronomical Twilight 5:18 AM MST 6:37 PM MST
Moon 1:56 AM MST (11/9) 2:18 PM MST (11/9)
Length of Visible Light 11h 15m
Length of Day
10h 20m
Waning Crescent, 22% of the Moon is Illuminated
Nov 9
Waning Crescent
Nov 13
New
Nov 20
First Quarter
Nov 28
Full
Dec 6
Last Quarter

Hourly Weather History & Observations

Time (MST) Temp. Windchill Dew Point Humidity Pressure Visibility Wind Dir Wind Speed Gust Speed Precip Events Conditions
12:53 AM 48.9 °F - 43.0 °F 80% 29.80 in 6.0 mi SSW 19.6 mph - 0.03 in Rain Rain
1:53 AM 46.9 °F - 42.1 °F 83% 29.79 in 10.0 mi SW 11.5 mph - N/A Rain Light Rain
2:53 AM 46.0 °F 43.1 °F 43.0 °F 89% 29.80 in 8.0 mi SW 5.8 mph - 0.03 in Rain Light Rain
3:53 AM 45.0 °F 40.6 °F 43.0 °F 93% 29.79 in 10.0 mi SSW 8.1 mph - 0.02 in   Clear
4:53 AM 44.1 °F 39.0 °F 41.0 °F 89% 29.82 in 10.0 mi South 9.2 mph - N/A   Clear
5:53 AM 43.0 °F 41.3 °F 41.0 °F 93% 29.83 in 10.0 mi ENE 3.5 mph - N/A   Overcast
6:53 AM 45.0 °F 41.2 °F 41.0 °F 86% 29.83 in 10.0 mi South 6.9 mph - N/A   Mostly Cloudy
7:53 AM 46.9 °F - 41.0 °F 80% 29.82 in 10.0 mi North - - 0.02 in Rain Light Rain
8:53 AM 50.0 °F - 39.9 °F 68% 29.79 in 10.0 mi Variable 3.5 mph - 0.00 in   Mostly Cloudy
9:53 AM 53.1 °F - 42.1 °F 66% 29.77 in 10.0 mi SSE 16.1 mph 20.7 mph 0.01 in   Mostly Cloudy
10:53 AM 54.0 °F - 42.1 °F 64% 29.75 in 10.0 mi SSE 11.5 mph 18.4 mph 0.00 in Rain Light Rain
11:53 AM 55.0 °F - 44.1 °F 67% 29.71 in 9.0 mi SSE 18.4 mph 27.6 mph 0.00 in Rain Light Rain
12:53 PM 55.9 °F - 39.9 °F 55% 29.66 in 10.0 mi South 18.4 mph 26.5 mph 0.00 in   Mostly Cloudy
1:31 PM 50.0 °F - 42.8 °F 76% 29.80 in 2.0 mi South 19.6 mph 36.8 mph 0.02 in Rain Heavy Rain
1:38 PM 51.8 °F - 44.6 °F 76% 29.80 in 3.0 mi South 16.1 mph 32.2 mph 0.03 in Rain Light Rain
1:53 PM 54.0 °F - 45.0 °F 72% 29.65 in 10.0 mi SSE 10.4 mph 23.0 mph 0.03 in Rain Light Rain
2:53 PM 54.0 °F - 42.1 °F 64% 29.62 in 10.0 mi South 18.4 mph 33.4 mph 0.00 in Rain Light Rain
3:53 PM 53.1 °F - 39.9 °F 61% 29.61 in 10.0 mi SSE 16.1 mph 25.3 mph 0.01 in Rain , Thunderstorm Light Rain
4:13 PM 51.8 °F - 41.0 °F 67% 29.72 in 10.0 mi SSE 16.1 mph 26.5 mph 0.00 in Rain Light Rain
4:53 PM 51.1 °F - 41.0 °F 68% 29.61 in 10.0 mi SW 4.6 mph - 0.03 in   Overcast
5:53 PM 53.1 °F - 36.0 °F 52% 29.63 in 10.0 mi South 20.7 mph 29.9 mph N/A   Mostly Cloudy
6:53 PM 50.0 °F - 36.0 °F 59% 29.64 in 10.0 mi SSW 10.4 mph - N/A   Mostly Cloudy
7:53 PM 53.1 °F - 30.9 °F 43% 29.62 in 10.0 mi South 25.3 mph 32.2 mph N/A   Overcast
8:53 PM 52.0 °F - 30.0 °F 43% 29.62 in 10.0 mi South 17.3 mph 27.6 mph N/A   Overcast
9:53 PM 51.1 °F - 30.0 °F 44% 29.60 in 10.0 mi South 26.5 mph 33.4 mph N/A   Overcast
10:53 PM 50.0 °F - 28.0 °F 43% 29.58 in 10.0 mi South 24.2 mph 34.5 mph N/A   Overcast
11:53 PM 50.0 °F - 28.0 °F 43% 29.55 in 10.0 mi South 32.2 mph 39.1 mph N/A   Overcast